Theta_e
324 325 325 325 324 324 324 324 324 323 323 323 323 322 322 322 322 322 322 322 321 321 321 322 323 324 324 319 319 323 345 338 324 322 322 322 320 322 319 327 328 325 329 330 332 331 329
325 325 325 325 325 325 324 324 324 324 324 323 323 322 322 322 322 322 321 320 320 320 321 321 324 323 325 318 331 324 320 323 324 322 322 324 321 326 328 328 327 327 330 328 330 330 328
326 326 326 326 325 324 324 324 324 324 323 323 322 322 322 321 322 321 320 319 319 320 321 322 324 326 325 325 331 331 324 321 323 324 321 325 324 321 328 325 331 331 325 327 325 326 325
326 326 325 325 325 324 324 324 324 323 323 322 322 322 322 321 321 320 318 317 319 323 323 323 325 328 322 330 332 327 326 323 326 326 324 325 324 321 328 327 326 324 325 317 325 327 328
326 325 325 325 325 324 323 323 323 323 321 320 321 320 321 321 320 318 317 317 322 324 323 324 324 326 320 330 321 326 324 319 322 324 325 324 321 318 325 321 314 317 311 317 321 329 326
326 326 325 325 324 324 323 322 321 321 321 320 320 319 320 320 319 317 315 317 325 324 323 327 328 322 326 320 323 322 324 321 317 319 319 319 318 314 318 319 305 307 310 315 318 325 323
326 325 325 325 324 324 323 322 321 320 320 321 320 319 319 319 318 316 316 326 325 322 328 320 321 321 320 321 324 321 322 320 317 316 311 316 310 309 313 319 317 313 311 313 322 327 323
326 325 323 322 323 323 323 323 321 320 320 320 320 319 319 318 317 315 316 319 322 321 314 323 323 321 322 320 314 318 322 313 311 308 313 312 307 314 321 319 317 316 311 316 320 323 320
326 325 323 322 321 321 322 322 321 320 320 320 320 319 318 316 316 317 317 322 328 325 314 317 321 319 318 319 314 315 318 316 311 309 310 308 311 314 314 313 311 311 311 314 315 318 322
325 323 323 322 320 320 321 321 320 320 319 319 319 319 317 314 318 325 319 324 327 325 309 313 315 318 320 318 312 321 320 315 311 308 310 310 313 311 310 309 311 308 316 316 315 316 310
323 322 321 320 320 320 320 320 319 319 319 319 319 318 315 314 323 320 323 325 325 321 298 316 316 325 321 314 315 315 320 316 309 308 310 307 308 308 308 307 313 310 316 314 315 314 314
321 321 320 320 320 320 319 319 319 318 318 318 318 317 314 323 324 327 326 323 321 307 299 312 316 314 313 314 313 315 314 318 316 310 309 309 315 310 310 312 313 315 312 313 313 312 304
320 320 320 320 319 319 318 318 318 317 317 316 315 313 315 324 321 328 325 316 304 300 313 310 311 314 312 310 312 311 309 308 306 303 303 307 310 312 312 310 312 311 308 304 302 303 302
320 320 319 319 318 318 317 317 317 316 316 315 313 312 320 326 329 327 322 308 298 306 307 315 314 312 309 312 311 310 308 305 310 309 306 303 302 309 313 311 310 310 309 304 295 299 301
319 319 319 318 318 317 316 316 316 315 315 314 312 325 326 329 328 324 314 300 301 307 312 310 312 309 308 311 310 309 308 307 310 311 305 305 305 313 314 315 316 310 308 313 306 308 304
318 318 318 318 316 316 316 315 315 315 314 313 317 319 322 329 326 319 309 300 305 310 312 311 306 310 306 309 308 309 309 311 310 313 314 311 305 312 313 316 315 311 314 305 307 299 299
317 317 317 317 317 316 315 315 315 314 313 313 320 320 324 327 322 313 303 305 307 311 311 308 308 309 309 308 309 308 309 312 312 312 314 312 310 309 313 309 307 308 307 309 309 307 300
316 316 317 317 317 316 316 315 314 313 311 316 321 314 324 324 310 311 307 309 307 311 312 309 310 309 309 310 309 309 309 312 315 313 309 312 309 307 309 314 314 312 310 310 304 304 307
315 316 316 316 316 317 316 315 314 312 312 318 318 320 327 322 307 309 312 311 312 310 309 308 307 309 312 310 308 310 312 316 316 313 311 313 306 302 307 311 313 310 312 311 311 310 307
315 315 315 315 316 316 317 315 313 312 312 318 318 314 320 320 316 312 310 310 310 313 311 311 309 310 308 308 312 308 310 314 316 316 324 318 309 306 304 305 311 308 309 310 310 305 306
314 314 314 316 316 316 317 315 314 313 313 317 319 315 316 310 312 314 314 311 309 308 312 312 308 307 307 305 307 307 310 312 315 318 316 313 306 309 311 312 313 310 309 309 308 309 305
314 314 315 316 316 317 317 316 315 314 313 318 314 313 315 314 315 314 310 311 309 310 312 308 307 308 309 306 307 307 310 312 312 315 314 315 309 310 308 311 311 308 309 309 308 308 308
314 314 315 316 317 317 318 317 317 316 314 316 320 320 315 309 311 309 311 310 309 313 314 314 312 312 307 310 313 314 316 316 314 312 313 312 310 310 304 310 307 305 308 308 309 310 310
314 315 316 317 318 318 318 318 318 318 315 317 318 317 311 306 308 308 311 312 311 312 310 313 314 313 317 320 319 318 316 314 313 313 314 314 314 312 305 308 299 310 315 313 311 311 312
314 315 317 318 318 319 319 320 319 319 318 317 319 315 311 306 310 308 310 311 313 314 313 312 315 317 321 316 310 308 307 309 310 312 312 315 315 308 304 303 308 310 313 311 310 309 314
314 316 316 318 319 319 319 319 319 319 318 319 319 317 307 304 306 312 309 310 310 309 311 313 318 318 317 311 307 302 301 305 305 307 313 312 314 309 308 302 299 310 314 317 316 305 317
315 315 317 317 317 318 318 319 319 320 318 318 318 319 310 302 310 312 309 309 311 310 309 311 314 312 315 308 304 302 301 308 302 304 306 305 308 306 305 304 307 315 317 318 305 309 319
315 316 316 316 316 317 317 318 318 319 319 317 321 321 311 304 307 312 314 310 310 312 308 311 311 312 309 305 304 304 303 306 305 310 310 308 305 305 307 305 302 318 316 310 321 322 320
314 315 315 315 315 315 316 316 317 318 319 316 312 316 316 306 308 314 315 317 317 316 313 314 311 312 312 306 307 308 306 308 308 303 314 305 308 309 310 309 325 320 320 322 321 322 320
Wind_Speed
16 15 15 15 14 15 16 16 16 16 16 17 17 17 17 17 16 16 15 15 15 14 13 11 9 7 7 9 11 11 9 7 8 11 14 14 15 10 4 6 8 11 14 11 16 10 9
14 14 15 15 15 15 16 16 17 17 17 17 17 17 17 17 16 16 17 15 15 14 13 10 7 5 7 12 14 14 12 11 13 14 15 14 13 3 11 5 8 9 13 11 14 13 13
13 13 14 14 15 15 16 16 17 17 18 18 18 18 18 19 18 18 18 16 15 14 12 9 6 7 10 13 2 13 11 13 13 14 14 11 7 12 4 20 15 16 16 14 13 10 8
12 13 13 14 14 15 15 16 17 17 18 19 20 20 20 20 20 19 18 17 14 13 11 8 6 9 9 5 5 6 11 12 13 12 13 13 9 14 13 16 17 7 6 8 14 12 7
12 13 13 14 14 15 15 17 18 18 20 22 22 22 21 21 20 20 18 17 11 6 4 7 7 8 15 5 10 11 10 12 12 11 12 10 12 14 11 10 8 7 2 9 15 13 11
13 13 14 14 14 14 14 20 20 21 21 23 23 23 22 21 21 19 20 10 6 4 6 10 12 11 11 14 9 12 11 11 12 13 11 13 13 15 18 10 8 4 5 11 11 10 12
11 12 14 15 15 15 14 17 21 22 23 24 24 24 23 22 22 17 15 6 7 8 12 15 4 14 10 7 6 7 10 11 12 13 14 15 13 16 23 13 24 20 18 18 10 14 11
11 11 16 17 14 15 16 16 15 20 22 23 24 22 23 24 24 20 7 8 7 9 14 20 20 11 3 9 9 11 11 12 13 14 16 15 14 18 19 17 21 18 15 8 6 10 11
11 11 13 17 19 18 16 16 16 16 17 19 20 21 23 27 30 5 11 16 9 12 11 18 18 14 11 10 11 14 15 15 13 15 16 17 15 13 13 6 9 11 3 8 6 6 7
12 12 13 13 17 16 15 16 16 17 17 18 20 21 21 28 8 11 13 8 7 10 9 13 15 12 15 10 13 15 15 13 10 14 15 15 15 3 9 13 10 14 7 10 12 11 5
12 13 12 14 15 16 15 16 17 18 18 19 20 20 19 7 12 9 10 8 10 9 8 16 17 13 17 19 13 16 15 17 14 13 12 12 14 14 10 13 12 4 5 9 5 13 7
12 12 13 14 15 16 15 16 18 18 18 20 20 20 16 4 8 15 13 11 9 8 11 13 11 12 16 17 11 14 14 16 13 13 14 19 5 10 12 13 12 9 3 9 11 11 12
12 13 14 15 15 16 17 17 18 19 20 21 24 22 11 8 8 14 10 8 8 11 14 12 19 14 17 16 14 11 15 15 13 11 11 13 11 10 14 12 6 11 14 2 5 5 9
13 13 14 15 15 16 17 18 19 20 21 22 26 28 9 10 9 10 8 8 13 12 21 10 13 15 16 16 14 14 14 14 18 19 12 14 14 14 9 14 7 12 15 8 3 7 6
12 12 13 14 14 16 17 18 18 20 23 23 29 8 9 10 11 7 8 13 13 18 18 16 13 12 18 17 11 15 18 16 18 18 19 12 12 18 14 15 12 9 10 10 17 19 12
13 13 14 13 14 15 17 18 19 20 23 20 10 8 11 6 8 7 9 18 19 24 26 20 17 11 16 19 19 16 18 17 18 19 17 19 11 12 15 11 10 11 12 10 8 4 1
13 14 14 14 14 15 16 18 19 21 25 26 7 7 8 7 6 7 12 16 19 24 24 20 15 18 13 17 16 15 17 14 16 18 13 16 10 6 12 9 13 9 12 11 14 4 6
14 13 14 14 16 16 16 16 17 19 26 12 10 8 8 6 8 8 14 19 20 23 18 16 14 19 19 17 21 18 17 14 14 18 19 13 14 13 15 13 13 17 12 9 7 5 6
14 14 14 14 15 16 16 14 14 14 14 8 7 10 8 7 9 12 16 21 22 22 19 18 18 18 19 17 16 14 13 17 17 15 10 10 13 11 7 12 15 7 9 11 9 4 7
13 14 14 14 15 16 16 12 13 12 11 7 7 6 6 8 11 17 19 16 16 17 16 12 16 18 17 18 16 13 18 16 7 7 6 4 15 15 5 12 15 13 10 14 14 10 7
13 14 15 14 15 16 15 12 12 12 10 6 7 6 12 8 8 12 14 16 20 12 13 16 17 20 16 18 14 14 18 19 11 9 4 8 15 17 9 16 17 7 9 6 8 10 11
13 13 14 14 14 15 15 13 11 13 17 5 6 11 9 14 16 16 13 11 16 15 18 15 14 18 17 14 14 15 16 15 13 12 13 13 14 15 15 10 19 15 7 7 8 12 10
13 14 14 14 14 14 13 12 12 11 10 6 10 12 9 12 15 11 11 12 20 15 19 17 8 7 15 9 12 16 10 11 13 13 14 16 13 12 15 14 20 26 11 10 10 9 6
15 15 15 15 15 12 11 11 12 10 6 6 9 9 10 12 13 11 11 14 13 14 11 17 8 6 5 14 12 12 12 12 13 15 18 16 15 13 13 12 9 15 6 2 8 4 3
15 15 16 17 14 11 10 10 10 9 6 7 5 5 7 11 13 12 16 9 11 12 13 13 14 13 12 8 12 9 11 15 17 15 15 7 10 13 13 12 11 18 11 6 8 8 8
15 14 15 16 11 10 9 10 11 9 8 7 5 2 2 6 4 19 15 13 11 9 11 13 17 12 12 8 10 14 13 17 17 10 15 9 16 11 9 11 15 9 16 12 9 6 8
13 13 13 12 11 10 11 10 11 9 5 7 2 5 0 4 12 13 11 10 12 11 10 5 11 11 10 9 12 13 14 16 18 21 18 8 8 13 10 11 11 7 14 5 6 4 4
15 12 9 11 12 13 12 11 12 12 6 5 3 3 2 3 11 17 20 18 12 10 7 7 7 8 8 10 11 12 13 13 16 18 18 19 11 10 8 18 12 7 9 11 7 6 4
14 10 10 10 11 12 13 13 13 12 7 5 2 1 2 2 9 20 21 21 19 17 12 9 5 13 6 5 7 5 11 12 15 16 14 13 3 11 14 9 10 12 5 11 6 5 5
Wind_Direction
22 15 10 10 8 6 4 2 357 352 349 347 343 338 336 334 331 326 320 313 307 300 293 290 291 295 272 218 249 137 152 166 207 229 251 263 275 307 358 7 88 9 97 110 93 94 130
12 9 5 4 3 2 360 358 355 349 346 345 341 337 334 331 328 325 322 314 303 293 285 280 276 287 247 252 105 144 176 182 229 214 252 248 278 335 293 257 96 184 117 111 108 122 151
2 0 359 357 358 357 357 355 351 348 345 344 341 336 333 331 329 326 323 315 302 287 276 265 250 252 262 269 347 155 199 201 218 250 253 257 292 296 313 339 138 124 132 124 138 155 127
356 356 354 352 352 352 352 350 348 345 344 343 343 339 334 330 328 327 323 316 303 288 261 242 228 248 262 161 293 195 207 219 227 242 266 307 305 280 118 239 323 151 105 167 156 152 145
350 350 348 348 349 350 352 350 347 345 346 345 342 339 333 329 327 326 323 312 294 309 224 187 224 233 261 108 226 216 214 221 214 234 242 273 276 274 273 135 27 349 325 187 140 157 154
348 348 347 346 345 346 348 353 351 349 346 344 342 337 330 327 325 325 320 285 315 266 219 207 261 260 245 234 172 204 208 230 206 220 230 240 249 252 232 159 140 260 289 258 145 187 162
345 347 346 345 343 339 336 347 350 347 343 342 340 334 326 323 323 325 320 216 201 199 226 242 223 237 162 106 127 197 197 222 203 212 219 213 235 247 55 54 158 179 223 243 161 195 138
334 337 348 346 343 338 332 325 340 343 341 339 335 327 325 322 320 319 269 253 19 340 298 234 246 242 291 144 189 194 186 206 197 208 217 222 235 256 138 203 190 205 184 183 114 163 106
333 331 335 340 340 341 332 328 322 328 332 329 326 326 327 322 318 266 246 280 341 314 288 276 212 218 202 173 216 171 195 218 198 218 212 243 219 225 273 236 232 247 239 61 182 216 196
331 334 331 330 336 333 329 328 324 323 323 323 322 324 327 332 299 334 262 246 289 306 281 241 188 208 184 215 220 175 197 211 191 225 237 232 270 256 278 265 243 258 12 164 186 177 224
333 334 342 335 330 326 328 327 325 323 322 322 320 320 324 313 301 285 3 321 324 281 279 124 172 148 171 213 146 176 186 227 254 216 235 235 229 255 236 244 241 268 178 271 265 190 201
333 338 333 327 328 330 331 330 328 326 324 320 316 315 333 292 225 262 301 291 268 237 249 183 135 182 179 219 183 149 183 240 236 247 234 257 236 214 237 235 233 273 293 248 250 250 235
335 331 334 337 337 335 333 330 327 324 323 321 316 305 300 292 258 346 320 272 230 242 227 167 165 189 202 196 210 165 196 208 230 230 204 227 235 229 236 219 200 236 247 81 320 279 316
333 336 338 337 338 337 335 332 329 324 322 319 315 305 252 231 259 276 272 230 236 248 243 287 176 186 207 220 202 168 197 211 229 234 193 206 187 199 199 233 173 224 258 118 231 227 283
339 339 339 338 336 335 334 333 330 327 323 325 310 286 240 224 215 244 234 227 224 249 286 314 197 204 200 228 213 183 205 216 217 237 254 249 230 176 183 232 212 321 235 195 203 229 207
338 339 338 336 336 336 335 333 332 329 324 329 316 284 252 176 165 219 232 240 251 249 274 300 290 222 224 210 210 218 200 215 231 218 250 271 128 178 199 206 246 278 318 283 237 283 83
339 337 333 331 329 334 334 336 334 332 325 322 262 259 115 142 180 222 232 236 249 262 278 293 279 286 240 270 219 210 245 217 212 236 227 260 282 210 214 189 236 206 236 252 275 339 222
338 335 334 335 332 326 328 337 337 338 334 316 283 262 135 174 216 233 240 243 260 269 287 264 259 282 286 290 282 221 234 235 184 228 209 238 266 178 225 207 212 248 244 239 241 267 272
337 336 333 334 331 326 325 331 338 342 356 320 278 277 176 211 249 229 245 238 247 253 243 262 262 253 274 277 291 300 243 228 177 193 237 203 244 257 262 220 199 246 257 281 279 227 291
335 332 337 331 327 324 325 332 335 335 339 315 278 287 205 194 250 276 292 294 245 240 257 270 266 273 249 264 276 288 289 276 156 174 49 238 245 240 225 46 292 212 223 244 266 271 147
333 332 329 324 323 325 326 328 328 327 330 293 249 282 341 288 289 311 272 264 282 272 236 230 247 260 249 251 256 256 274 276 183 140 190 238 245 264 185 198 262 278 195 204 235 289 304
324 325 322 327 321 325 328 327 330 334 324 252 298 333 330 307 304 289 283 285 289 284 283 251 222 253 257 255 258 258 254 268 273 189 215 222 243 261 272 81 316 238 249 264 262 278 272
323 320 322 321 321 322 324 328 327 334 334 295 346 338 317 284 281 276 283 310 317 307 270 275 296 305 236 284 269 266 306 316 306 303 235 216 240 240 250 185 188 256 225 243 256 257 267
323 325 325 321 321 320 320 321 322 328 323 303 308 317 288 285 289 297 287 309 277 312 322 314 289 243 67 9 321 286 271 274 287 290 284 197 221 250 251 251 229 266 236 126 4 338 279
325 326 323 319 312 316 320 322 320 318 309 288 310 319 305 293 291 277 310 298 293 302 297 280 299 306 308 328 294 258 261 260 256 261 281 275 233 228 245 246 248 264 173 187 203 238 252
323 325 326 341 345 340 334 321 320 317 308 268 267 119 319 313 242 353 330 272 277 303 290 292 294 280 297 284 268 247 240 234 221 234 260 178 240 285 239 220 257 254 17 201 147 231 234
326 328 330 338 345 342 335 333 330 331 280 252 318 140 182 269 280 318 294 334 323 308 296 305 324 279 236 248 249 240 242 255 235 232 242 261 256 212 258 225 244 184 154 162 197 81 43
333 324 332 341 346 345 350 344 345 333 312 234 299 155 195 254 281 272 287 292 302 313 296 343 267 250 262 246 252 258 263 261 248 257 218 236 234 217 227 249 220 130 124 169 113 135 90
335 346 347 346 347 347 349 348 342 337 321 185 273 34 44 246 292 312 285 279 283 276 283 284 330 294 348 288 241 289 242 253 245 247 243 242 276 271 246 239 178 214 210 157 150 144 132